Wind_Speed
21 21 21 22 22 20 23 24 25 24 21 19 17 16 17 18 18 14 13 11 11 10 10 10 10 10 11 13 14 15 14 14 14 12 11 11 12 11 11 11 11 10 9
25 25 23 23 23 22 21 23 25 25 22 19 18 17 18 18 18 16 13 12 13 11 10 10 10 10 11 11 13 14 13 14 13 13 12 10 10 10 10 9 9 8 7
26 29 27 26 24 23 23 24 25 25 23 19 17 17 18 18 18 17 14 13 14 13 11 11 11 10 11 12 12 14 13 13 14 11 11 10 9 9 9 7 6 7 6
28 29 30 28 27 25 23 23 25 24 21 19 18 18 18 19 20 20 18 14 14 14 14 13 10 11 12 13 13 12 14 13 14 12 13 11 10 9 8 7 7 6 6
31 33 32 31 28 28 23 24 24 24 24 22 20 21 20 18 20 20 21 18 16 16 15 16 13 11 11 12 13 13 14 15 14 13 14 13 11 10 9 10 9 9 8
37 33 33 33 30 28 23 25 24 24 25 23 23 21 22 19 19 20 21 21 18 17 16 17 16 14 12 12 14 15 15 17 16 14 15 14 13 12 12 11 12 13 13
40 38 33 29 27 27 25 24 24 24 24 24 23 22 22 20 19 19 20 21 21 20 19 19 18 16 16 14 13 15 18 19 19 14 16 16 15 14 13 14 13 13 14
43 37 29 25 24 25 22 25 25 25 25 23 23 24 23 22 21 20 21 21 21 22 21 21 20 19 18 18 16 16 18 20 20 15 21 17 17 16 15 14 14 14 15
39 32 24 23 21 23 23 27 24 25 23 22 22 23 23 23 23 22 22 22 23 24 24 23 22 22 20 19 19 17 17 19 21 18 23 20 20 17 16 16 15 15 16
29 28 20 22 22 24 27 26 26 22 21 21 21 22 23 24 24 25 25 24 24 24 25 25 24 23 23 22 21 20 20 19 20 20 22 23 23 21 18 17 17 17 17
26 25 21 18 20 20 21 22 22 21 21 22 21 22 23 23 25 25 25 27 26 26 27 28 27 26 25 23 22 22 22 20 18 22 23 23 25 25 23 20 20 20 19
26 25 22 20 21 22 21 21 22 21 21 20 21 23 24 23 25 25 26 29 27 27 28 29 30 28 27 26 24 24 24 21 19 22 23 24 25 27 27 25 23 23 23
24 21 20 18 18 18 20 20 19 19 21 22 21 24 26 23 25 25 27 29 30 30 30 29 30 30 30 30 28 27 26 21 22 20 21 23 26 27 28 28 27 26 27
21 20 17 19 19 19 22 20 20 19 20 22 23 25 27 26 25 26 28 30 31 32 32 31 29 30 31 31 32 32 29 24 26 24 22 22 24 26 29 29 29 29 30
22 19 20 17 19 21 22 21 22 21 23 23 24 26 28 28 26 28 28 31 32 33 34 34 32 32 31 32 33 35 32 28 27 28 25 25 25 26 27 30 31 32 32
25 26 21 19 20 21 20 20 22 22 23 25 24 26 29 29 27 29 30 32 32 34 34 36 34 35 35 34 35 36 35 31 29 31 28 27 27 26 26 30 31 32 33
27 28 28 20 24 22 21 22 23 26 22 25 26 26 29 29 29 29 30 34 36 35 34 36 37 38 37 37 37 38 37 34 32 32 31 30 29 28 27 26 29 34 35
27 29 31 28 25 28 26 27 29 30 28 32 33 31 28 29 30 29 33 30 35 38 37 38 40 41 39 39 39 41 40 38 36 36 32 31 30 31 30 29 28 30 33
29 32 34 33 31 32 33 33 34 34 33 31 36 36 31 30 33 30 30 33 36 35 38 40 43 43 41 41 42 42 43 43 40 38 35 34 33 33 32 32 30 32 33
33 36 38 40 40 40 39 42 38 36 36 36 37 37 36 37 37 39 35 35 36 36 40 41 43 45 44 43 45 43 45 45 47 41 39 36 40 35 34 33 33 31 31
40 41 42 43 46 47 49 47 48 46 47 47 45 45 44 42 41 43 36 41 40 36 41 43 46 47 46 46 46 46 46 46 49 46 39 39 36 35 36 36 34 35 34
43 45 47 48 50 52 54 53 52 54 55 52 52 52 52 48 44 45 43 40 42 43 44 46 47 48 48 47 47 48 49 49 48 48 45 43 44 44 42 40 37 38 37
45 47 49 50 54 59 61 60 62 61 61 62 61 59 58 59 57 52 51 48 46 46 50 51 50 50 49 50 49 50 50 50 48 50 48 45 48 42 55 44 43 39 34
54 54 54 57 59 61 64 66 65 65 66 68 70 69 68 65 63 63 58 56 53 49 50 52 54 51 52 52 50 50 51 52 50 52 54 48 48 55 56 49 45 42 39
56 58 62 64 64 65 65 67 66 69 73 75 78 77 79 76 73 67 64 60 56 54 52 52 54 55 52 55 54 50 53 53 52 53 55 48 44 48 58 54 49 47 35
65 67 68 68 68 68 70 73 75 78 78 81 81 81 85 83 82 79 74 68 62 56 56 56 54 57 55 55 58 57 53 54 54 52 53 49 49 47 52 59 48 42 37
Wind_Direction
323 319 320 316 318 317 319 321 326 328 320 320 321 328 334 332 329 321 317 306 297 298 304 303 303 308 316 321 320 319 318 313 308 303 301 301 297 295 293 292 289 288 284
322 316 311 310 311 312 314 319 321 319 319 313 313 320 327 329 328 323 313 306 295 294 300 306 307 309 309 311 316 317 317 316 306 303 308 304 305 299 296 292 290 287 274
316 314 315 305 302 306 307 314 317 316 314 311 309 315 321 324 323 321 315 311 302 292 292 298 309 313 307 308 308 314 314 310 303 312 296 292 295 297 298 289 273 268 262
312 315 306 303 298 299 303 310 313 311 304 304 306 310 314 319 319 321 319 310 304 298 293 292 300 308 310 304 303 308 305 299 303 299 292 297 286 285 290 283 266 259 261
315 307 305 293 293 295 300 311 312 310 303 295 296 303 309 314 317 319 318 315 309 304 297 293 296 299 298 298 296 295 296 293 295 294 294 289 289 285 275 269 262 257 258
319 308 303 294 290 294 293 316 310 308 303 295 293 297 308 309 311 312 317 315 313 304 300 294 293 290 293 293 290 289 289 290 289 282 282 279 285 287 283 271 265 260 254
308 307 303 293 288 291 295 311 309 307 301 292 292 294 300 305 304 307 313 314 313 310 304 296 290 290 290 289 288 287 281 283 286 281 275 273 278 282 279 278 266 261 257
299 300 300 289 286 292 292 308 305 304 299 296 297 298 299 299 300 304 307 311 310 307 302 297 296 292 290 292 290 288 286 283 286 286 280 268 271 277 280 273 273 265 256
289 285 295 288 286 293 291 306 298 300 299 299 300 298 299 297 298 298 302 306 307 306 305 302 298 295 292 287 287 287 288 285 282 281 277 275 273 276 278 276 265 261 257
280 277 285 287 285 287 288 290 294 297 298 300 300 296 295 298 297 297 299 300 306 304 304 302 299 294 291 287 286 286 287 286 289 277 270 274 272 274 275 271 267 262 259
279 279 280 286 281 281 281 284 285 287 293 297 298 293 294 298 296 291 296 295 302 305 304 303 301 295 291 286 283 284 285 285 292 281 274 270 269 271 273 273 268 265 263
282 284 280 272 275 276 274 276 283 288 291 293 294 293 295 298 296 295 293 293 299 300 302 302 300 298 294 289 286 285 287 296 293 285 282 274 270 269 270 274 271 267 266
290 285 286 283 279 277 279 280 286 289 291 293 289 289 290 295 294 297 291 293 295 295 297 297 297 296 292 290 288 287 289 293 287 288 290 284 277 273 271 270 272 273 270
290 291 289 290 287 285 286 283 282 284 283 289 287 287 291 295 293 292 289 289 289 291 293 292 291 291 291 289 288 287 290 291 294 290 293 288 283 279 275 272 269 269 271
289 285 287 277 280 279 283 288 287 287 288 285 287 295 291 293 291 290 289 288 288 289 290 288 290 285 284 283 282 285 290 288 291 287 291 289 286 282 279 276 274 271 271
283 283 277 276 273 280 284 281 280 283 283 287 289 290 282 287 286 285 288 285 285 284 284 284 286 284 283 281 280 282 285 286 287 291 287 287 286 286 287 278 274 275 274
279 281 283 274 273 272 277 280 282 287 282 289 287 278 274 278 281 277 286 290 289 283 282 281 280 279 279 276 276 279 283 281 282 283 283 284 284 284 287 285 280 272 273
276 279 277 277 269 273 269 280 285 286 284 294 294 288 278 282 283 279 280 278 280 284 283 281 278 276 277 277 275 277 280 280 278 281 282 280 283 283 285 286 280 280 277
276 273 272 270 266 257 265 266 272 281 279 281 285 283 277 280 283 283 284 288 284 277 276 279 278 277 274 275 274 275 276 277 276 275 278 275 279 282 282 281 281 284 282
279 279 276 269 266 260 262 263 263 262 264 270 270 271 272 280 282 284 288 285 287 278 271 272 272 274 274 271 273 273 273 275 276 276 277 275 274 276 280 281 283 287 282
273 276 277 277 269 268 264 272 268 263 262 267 267 267 266 269 271 276 281 285 276 281 278 272 272 273 272 272 270 272 274 273 273 275 279 273 275 270 277 280 280 282 281
276 275 276 278 279 275 271 269 274 271 268 264 262 264 266 261 266 269 269 273 278 272 269 270 272 272 273 272 269 268 269 270 272 274 276 271 271 271 275 276 274 278 281
279 278 276 278 280 281 277 272 274 275 275 270 269 264 258 258 257 258 261 261 263 269 272 269 267 270 271 271 269 266 267 270 271 272 276 276 277 274 273 274 275 277 274
278 275 275 278 279 281 282 277 275 274 274 276 273 268 266 262 257 256 257 258 258 262 266 271 269 269 273 272 267 269 269 267 267 269 273 273 274 274 272 269 272 274 273
286 283 280 280 278 280 279 280 277 275 272 271 273 271 267 265 265 263 257 254 256 258 261 266 270 273 272 269 271 270 270 268 266 264 268 272 277 274 270 262 264 268 266
287 283 282 283 284 281 280 280 280 277 275 274 271 268 266 264 261 260 262 259 251 251 256 261 266 271 271 270 269 272 270 267 267 265 267 266 266 271 279 258 256 260 263
Height
5887 5884 5883 5880 5879 5877 5875 5873 5871 5870 5868 5867 5866 5864 5862 5861 5859 5858 5858 5857 5856 5855 5854 5854 5853 5851 5849 5849 5849 5848 5847 5847 5847 5846 5846 5846 5845 5845 5845 5845 5845 5846 5846
5884 5882 5881 5878 5876 5873 5872 5870 5868 5866 5865 5864 5863 5862 5860 5858 5858 5857 5855 5855 5854 5853 5852 5851 5851 5849 5848 5847 5846 5846 5845 5845 5845 5845 5845 5845 5845 5844 5844 5844 5844 5845 5845
5882 5878 5878 5875 5873 5871 5869 5867 5865 5863 5862 5861 5860 5859 5858 5857 5855 5855 5853 5852 5852 5851 5849 5849 5848 5847 5846 5845 5844 5844 5843 5843 5842 5844 5843 5843 5843 5843 5843 5843 5843 5844 5844
5877 5875 5874 5871 5869 5867 5865 5863 5861 5860 5859 5858 5856 5856 5855 5854 5853 5852 5851 5849 5848 5848 5847 5846 5846 5845 5844 5844 5843 5842 5842 5840 5840 5842 5842 5843 5842 5841 5842 5842 5843 5842 5842
5870 5870 5868 5866 5864 5863 5862 5860 5859 5857 5856 5854 5853 5852 5852 5851 5850 5849 5849 5847 5846 5845 5845 5844 5843 5843 5843 5842 5841 5840 5840 5839 5839 5840 5840 5840 5841 5841 5840 5841 5842 5841 5841
5864 5863 5862 5860 5860 5859 5858 5857 5855 5854 5853 5852 5851 5849 5848 5847 5846 5846 5845 5845 5843 5843 5843 5842 5841 5841 5840 5839 5839 5838 5838 5837 5837 5838 5838 5838 5838 5839 5839 5839 5840 5840 5840
5859 5858 5856 5854 5854 5854 5853 5852 5851 5850 5849 5848 5847 5846 5844 5843 5843 5843 5843 5842 5841 5840 5839 5839 5839 5839 5838 5837 5836 5837 5836 5835 5835 5838 5836 5837 5837 5837 5837 5838 5838 5838 5838
5853 5852 5849 5847 5848 5849 5849 5848 5847 5847 5846 5845 5843 5843 5841 5841 5840 5840 5839 5839 5837 5836 5836 5836 5835 5835 5835 5835 5835 5834 5833 5833 5832 5837 5832 5835 5835 5834 5835 5834 5835 5836 5836
5847 5845 5844 5841 5843 5843 5843 5843 5842 5842 5841 5840 5839 5838 5838 5837 5836 5836 5835 5835 5834 5832 5832 5832 5832 5832 5833 5833 5832 5831 5830 5830 5830 5835 5830 5832 5831 5832 5832 5832 5832 5833 5833
5839 5839 5841 5837 5838 5837 5837 5837 5838 5838 5837 5836 5835 5835 5834 5834 5833 5833 5833 5832 5831 5830 5828 5828 5828 5828 5829 5829 5828 5827 5827 5826 5827 5829 5827 5828 5828 5828 5829 5828 5828 5829 5830
5834 5834 5836 5834 5833 5832 5832 5832 5833 5832 5832 5832 5830 5829 5829 5829 5829 5828 5828 5827 5827 5826 5825 5824 5824 5825 5824 5824 5824 5824 5823 5823 5825 5823 5822 5823 5823 5824 5825 5825 5825 5825 5826
5830 5830 5830 5830 5828 5829 5828 5827 5827 5827 5826 5825 5825 5824 5825 5825 5824 5824 5824 5823 5822 5821 5821 5821 5820 5820 5820 5819 5819 5819 5818 5820 5819 5818 5818 5818 5818 5819 5819 5820 5821 5821 5822
5825 5827 5826 5825 5825 5824 5824 5824 5823 5822 5822 5821 5821 5819 5818 5819 5819 5820 5819 5818 5818 5817 5817 5816 5816 5816 5815 5814 5814 5813 5812 5815 5813 5813 5813 5813 5813 5813 5814 5814 5816 5816 5816
5822 5821 5822 5820 5821 5820 5820 5819 5818 5818 5817 5817 5815 5815 5814 5814 5814 5814 5814 5813 5813 5812 5812 5810 5810 5810 5810 5810 5809 5807 5807 5809 5808 5808 5807 5807 5807 5808 5808 5808 5809 5810 5811
5815 5817 5816 5817 5816 5815 5815 5815 5814 5814 5812 5811 5810 5811 5810 5809 5808 5808 5809 5807 5807 5806 5807 5804 5805 5804 5803 5803 5803 5801 5803 5804 5802 5801 5801 5800 5801 5802 5802 5802 5803 5804 5804
5810 5809 5811 5812 5811 5811 5811 5810 5809 5808 5807 5806 5805 5805 5803 5802 5802 5801 5802 5801 5800 5799 5799 5798 5798 5797 5798 5798 5797 5796 5797 5798 5797 5796 5796 5795 5795 5795 5796 5796 5796 5796 5797
5805 5804 5804 5807 5806 5805 5805 5804 5803 5803 5802 5800 5799 5796 5795 5794 5794 5796 5795 5796 5795 5793 5792 5791 5791 5789 5790 5789 5790 5789 5789 5791 5791 5790 5791 5790 5789 5789 5789 5789 5788 5788 5788
5798 5798 5798 5800 5801 5799 5799 5797 5797 5796 5796 5794 5794 5792 5789 5786 5785 5788 5786 5786 5786 5786 5785 5785 5784 5782 5782 5781 5782 5781 5782 5783 5784 5784 5784 5783 5784 5783 5782 5781 5781 5780 5780
5791 5791 5790 5791 5792 5790 5789 5787 5787 5788 5788 5786 5785 5785 5783 5779 5777 5778 5777 5776 5776 5776 5774 5775 5776 5774 5774 5773 5773 5773 5773 5774 5775 5776 5777 5778 5777 5776 5775 5774 5773 5773 5772
5785 5784 5783 5783 5784 5782 5780 5777 5776 5775 5775 5774 5774 5774 5773 5771 5769 5768 5767 5766 5766 5766 5765 5765 5764 5764 5765 5765 5764 5765 5764 5765 5766 5767 5768 5770 5770 5769 5768 5766 5765 5765 5764
5777 5775 5773 5772 5773 5773 5773 5771 5769 5767 5764 5763 5762 5762 5762 5760 5756 5755 5756 5755 5756 5756 5756 5756 5755 5754 5754 5755 5756 5756 5756 5755 5756 5758 5759 5761 5762 5762 5760 5758 5757 5756 5756
5769 5767 5765 5763 5761 5759 5759 5759 5757 5756 5755 5752 5750 5749 5749 5747 5746 5742 5742 5741 5743 5744 5743 5744 5745 5744 5744 5744 5746 5745 5743 5745 5746 5748 5749 5751 5752 5752 5752 5750 5749 5747 5747
5758 5757 5756 5753 5748 5744 5743 5746 5745 5744 5741 5740 5740 5738 5735 5732 5731 5728 5728 5727 5729 5731 5731 5733 5732 5732 5733 5733 5734 5734 5732 5733 5736 5737 5738 5740 5741 5742 5741 5741 5741 5740 5739
5747 5747 5745 5742 5738 5733 5727 5730 5730 5731 5729 5725 5723 5720 5719 5717 5716 5713 5713 5711 5715 5717 5718 5719 5720 5722 5723 5723 5722 5721 5723 5724 5725 5726 5728 5727 5729 5730 5730 5731 5731 5731 5728
5732 5731 5729 5726 5723 5720 5715 5710 5712 5711 5709 5704 5703 5701 5699 5699 5700 5699 5698 5695 5696 5702 5702 5705 5706 5708 5710 5711 5712 5709 5710 5711 5713 5715 5715 5716 5717 5717 5716 5718 5719 5721 5720
5713 5711 5708 5707 5705 5702 5697 5690 5685 5685 5684 5679 5677 5676 5677 5676 5677 5678 5681 5680 5677 5684 5687 5690 5692 5693 5698 5700 5699 5698 5698 5699 5700 5702 5704 5703 5703 5704 5704 5705 5706 5709 5709